Regional Weather Roundup
Issued by NWS

Home | Current Version | Previous Version | Text Only | Print | Product List | Glossary Off
Versions: 1 2 3 4 5 6 7 8 9 10 11 12 13 14 15 16 17 18 19 20 21 22 23 24 25 26 27 28 29 30 31 32 33 34 35 36 37 38 39 40 41 42 43 44 45 46 47 48 49 50

000
ASUS43 KLOT 290112
RWRIL

ILLINOIS REGIONAL WEATHER ROUNDUP
NATIONAL WEATHER SERVICE CHICAGO/ROMEOVILLE IL
800 PM CDT TUE JUL 28 2015

NOTE: "FAIR" INDICATES FEW OR NO CLOUDS BELOW 12,000 FEET WITH NO
SIGNIFICANT WEATHER AND/OR OBSTRUCTIONS TO VISIBILITY.

* THESE STATIONS ARE NOT UNDER NWS QUALITY CONTROL. THEY ALSO MAY NOT
  REPORT WEATHER SUCH AS PRECIPITATION OR FOG.

ILZ001-002-007-009-015-016-024-290200-
NORTHWEST ILLINOIS

CITY           SKY/WX    TMP DP  RH WIND       PRES   REMARKS
MOLINE         MOCLDY    84  77  79 NW5       29.91R HX  94
STERLING*      MOCLDY    81  73  78 CALM      29.91R HX  85
SAVANNA*       CLOUDY    79  74  83 S3        29.92R HX  83
$$

ILZ003-004-008-010-011-017-018-290200-
NORTH CENTRAL ILLINOIS

CITY           SKY/WX    TMP DP  RH WIND       PRES   REMARKS
ROCKFORD       MOCLDY    81  72  74 S5        29.94R HX  85
FREEPORT*      MOCLDY    78  74  86 CALM      29.95R HX  80
ROCHELLE*      MOCLDY    78  74  88 CALM      29.94R HX  80
DE KALB*       PTCLDY    79  74  86 SW3       29.96R HX  82
PERU*          MOCLDY    80  74  83 CALM      29.93R HX  84
$$

ILZ005-006-012>014-019>023-290200-
NORTHEAST ILLINOIS

CITY           SKY/WX    TMP DP  RH WIND       PRES   REMARKS
CHICAGO-OHARE  MOCLDY    85  69  58 SW5       29.91R HX  89
CHICAGO-MIDWAY MOCLDY    87  69  54 SW6       29.91R HX  91
AURORA         PTCLDY    80  74  81 CALM      29.94R HX  85
LANSING*       MOCLDY    83  69  64 CALM      29.92S HX  86
JOLIET*        MOCLDY    84  76  76 W3        29.93R HX  92
WAUKEGAN       PTCLDY    80  69  69 SE6       29.92R HX  83
DUPAGE AIRPORT MOCLDY    83  74  74 SW7       29.93R HX  89
KANKAKEE*      MOCLDY    82  77  84 CALM      29.93R HX  90
WHEELING       MOCLDY    86  69  56 W7        29.92R HX  90
MORRIS*        PTCLDY    80  75  85 CALM      29.92R HX  85
ROMEOVILLE*    MOCLDY    81  73  76 W6        29.93R HX  86
NORTHERLY ISL    N/A     79  72  79 S2          N/A  HX  82
$$

LMZ740>746-290200-
SOUTHERN LAKE MICHIGAN

STATION/POSITION SKY/WX   TEMP    WIND        PRES    VSBY  WAVE
                          AIR SEA DIR/SP/G                  HT/PER
                          (F)     (DEG/KT/KT) (MB)    (MI)  (FT/S)
HARRISON CRIB              77     160/  7/ 11   N/A
BURNHAM HARBOR             81     130/  2/  3   N/A
CALUMET HARBOR             87     210/  5/  7   N/A
BURNS HARBOR               87     170/  5/ 10 1013.5R
MICHIGAN CITY              86     140/  7/  9   N/A
MICHIGAN CITY 6N           80 76  160/  4/  6   N/A           0
ST. JOSEPH                 80 77  200/  4/  4   N/A           0
$$

ILZ025>027-034>036-040-047-049-050-058-095>099-290200-
WEST-CENTRAL ILLINOIS

CITY           SKY/WX    TMP DP  RH WIND       PRES   REMARKS
QUINCY         CLEAR     88  80  77 S3        29.91R HX 104
GALESBURG*     MOCLDY    83  79  87 E6        29.92R HX  95
MACOMB*        CLEAR     84  80  87 W3        29.94R HX  97
JACKSONVILLE*  CLEAR     89  81  78 CALM      29.92R HX 108
PITTSFIELD*    CLEAR     88  81  79 CALM      29.93R HX 106
$$

ILZ028>032-037-038-041>044-048-051>054-059>061-290200-
CENTRAL ILLINOIS

CITY           SKY/WX    TMP DP  RH WIND       PRES   REMARKS
PONTIAC        MOCLDY    79  74  85 CALM      29.95R HX  83
BLOOMINGTON    CLOUDY    78  73  84 S5        29.96R HX  80
DECATUR        CLOUDY    79  73  82 SE3       29.94R HX  82
PEORIA         MOCLDY    84  75  74 SE5       29.93R HX  92
LACON*         CLOUDY    78  73  86 CALM      29.92R HX  80
LINCOLN*       CLOUDY    81  73  76 CALM      29.93R HX  85
SPRINGFIELD    PTCLDY    85  76  74 SE6       29.93R HX  94
TAYLORVILLE    MOCLDY    81  75  83 SE3       29.93R HX  86
$$

ILZ033-039-045-046-055>057-062-063-290200-
EAST-CENTRAL ILLINOIS

CITY           SKY/WX    TMP DP  RH WIND       PRES   REMARKS
CHAMPAIGN      CLOUDY    77  74  90 CALM      29.94R
DANVILLE*      MOCLDY    79  76  90 CALM      29.91S HX  82
RANTOUL*       MOCLDY    80  77  91 CALM      29.94R HX  85
MATTOON        CLOUDY    76  73  91 SE3       29.93R
PARIS*         MOCLDY    80  77  92 SW5       29.94R HX  85
$$

ILZ079-100>102-290200-
SOUTHWEST ILLINOIS

CITY           SKY/WX    TMP DP  RH WIND       PRES   REMARKS
ALTON          MOCLDY    81  77  89 SE6       29.92R HX  88
BELLEVILLE     MOCLDY    81  81  99 CALM      29.90R HX  93
CAHOKIA*       CLOUDY    84  75  74 SE3       29.91R HX  92
SPARTA*        CLOUDY    81  76  84 S12       29.94R THUNDER HX  87
$$

ILZ064>066-069>071-074>076-080>082-084>086-088>090-092>094-290200-
SOUTH-CENTRAL ILLINOIS

CITY           SKY/WX    TMP DP  RH WIND       PRES   REMARKS
CARBONDALE     TSTM      80  75  84 SE10      29.95R HX  85
CAIRO*         PTCLDY    87  80  77 SE5       29.94R HX 103
EFFINGHAM*     CLOUDY    79  74  86 CALM      29.95R HX  82
MARION         TSTM      81  73  78 SW7       29.96R HX  85
MT. VERNON     CLOUDY    81  72  74 SW3       29.93S HX  84
CENTRALIA*     CLOUDY    84  76  76 CALM      29.92S HX  94
SALEM*         CLOUDY    89  77  66 S5        29.92S HX 102
METROPOLIS*    CLOUDY    78  73  84 E10G20    29.97R THUNDER HX  80
$$

ILZ067-068-072-073-078-083-087-091-290200-
SOUTHEAST ILLINOIS

CITY           SKY/WX    TMP DP  RH WIND       PRES   REMARKS
LAWRENCEVILLE  MOCLDY    87  77  72 CALM      29.92S HX  99
FLORA*         MOCLDY    83  75  77 E5        29.93S HX  89
FAIRFIELD*     CLOUDY    78  75  89 S3        29.92R HX  81
HARRISBURG*    CLOUDY    76  76  99 SW6       29.96R
ROBINSON*      MOCLDY    81  77  86 CALM      29.93F HX  88
CARMI*         CLOUDY    76  71  83 SW7       29.94R
$$

ABBREVIATIONS USED IN REMARKS
   TC - TEMPERATURE IN CELSIUS
  WCI - WIND CHILL INDEX
   HX - HEAT INDEX
  VSB - VISIBILITY
$$




USA.gov is the U.S. government's official web portal to all federal, state and local government web resources and services.